Showing default

IRIDIUM 134, 43075

Orbit data source: Space-Track

IRIDIUM 134, 43075 is a payload satellite owned by Iridium (US) in LEO that was launched on Sat, 23 Dec 2017 UTC via an FALCON 9 launch vehicle from the Air Force Western Test Range (AFWTR). Payload-class satellites include a variety of spacecraft equipped with specific instruments for various scientific and technological missions. These include communications satellites like Starlink; space stations such as the ISS; scientific satellites like the Hubble; Earth observation satellites from companies like Planet Labs, Umbra, and HawkEye 360; GPS; miniature CubeSats for education and research; and military/defense satellites.

Loading next visibility...
Identifier
43075, 2017-083F
Orbit
LEO
Country
Flag of USUS
Related business
Manufacturer
OATK SSG Gilbert
Mission
Operational Commercial Communications
Bus & Motor
ELITEBUS, Unknown motor
Mass
860 kg wet, 700 kg dry
Launch date (UTC)
2017-12-23 (8 years ago)
Launch vehicle
FALCON 9
Launch site
Air Force Western Test Range (AFWTR)
Object type
Payload
Rocket body
Debris
Shape & HBR
Trap Box + 2 Pan, 4.7 m
Radar Cross Section
14.423 m², Large (>1 m²)

Expand to show TLE details & history
Last TLE update: 14 hours ago

TLE from 14 hours ago
0 IRIDIUM 134
1 43075U 17083F   25260.88943465  .00000012  00000-0 -29407-5 0  9991
2 43075  86.3910  75.8874 0002332  87.6586 272.4877 14.34217571405075
Epoch: 2025-09-17T21:20Z
TLE epoch observation values (Epoch: 2025-09-17T21:20:47.153Z)
Latitude
-0.00002°
Longitude
118.63202°
Altitude
780.647 km
Speed
7.464 km/s
True Right ascension
05h 03m 32s
True Declination
0° 00' 00"
Sunlit
Object was in daylight at epoch
Visualization orbit readout
Latitude
Unknown
Longitude
Unknown
Altitude
Unknown
Speed
Unknown
Apparent Right ascension
Unknown
Apparent Declination
Unknown
Sunlit
N/A
Visualization observer readout
Local Sidereal Time
04:05:06
Azimuth
Unknown
Elevation
Unknown
Doppler factor
Unknown
Orbital elements
Apogee altitude
776.3 km
Perigee altitude
772.964 km
Semi-major axis
7,152.769 km
Eccentricity
0.00023
Inclination
86.391°
RAAN
75.8874°
Arg. of periapsis
87.6586°
True anomaly
272.461°
Mean anomaly
272.4877°
Eccentric anomaly
272.47435°
Mean motion
3.58783 °/min
Orbital period
100.34 mins
BSTAR
-0.0000029407
Loading maneuver chart data...
Computing Atmospheric mass density...
Loading historical data...
Loading historical data...
Loading historical data...
Loading historical data...
Loading historical data...
Loading historical data...
Loading historical data...

Documentation

Showing up to 5 results
|